AL, 03, 1899080300,   , BEST,   0, 117N,  310W,  35,     , TS, , , , , , , , , , , , , ,    UNNAMED
AL, 03, 1899080306,   , BEST,   0, 118N,  324W,  45,     , TS, , , , , , , , , , , , , ,    UNNAMED
AL, 03, 1899080312,   , BEST,   0, 120N,  340W,  50,     , TS, , , , , , , , , , , , , ,    UNNAMED
AL, 03, 1899080318,   , BEST,   0, 122N,  357W,  55,  995, TS, , , , , , , , , , , , , ,    UNNAMED
AL, 03, 1899080400,   , BEST,   0, 124N,  374W,  60,     , TS, , , , , , , , , , , , , ,    UNNAMED
AL, 03, 1899080406,   , BEST,   0, 126N,  388W,  60,     , TS, , , , , , , , , , , , , ,    UNNAMED
AL, 03, 1899080412,   , BEST,   0, 127N,  403W,  60,     , TS, , , , , , , , , , , , , ,    UNNAMED
AL, 03, 1899080418,   , BEST,   0, 130N,  420W,  60,     , TS, , , , , , , , , , , , , ,    UNNAMED
AL, 03, 1899080500,   , BEST,   0, 135N,  440W,  60,     , TS, , , , , , , , , , , , , ,    UNNAMED
AL, 03, 1899080506,   , BEST,   0, 137N,  455W,  60,     , TS, , , , , , , , , , , , , ,    UNNAMED
AL, 03, 1899080512,   , BEST,   0, 140N,  470W,  60,     , TS, , , , , , , , , , , , , ,    UNNAMED
AL, 03, 1899080518,   , BEST,   0, 143N,  487W,  65,     , HU, , , , , , , , , , , , , ,    UNNAMED
AL, 03, 1899080600,   , BEST,   0, 146N,  506W,  70,     , HU, , , , , , , , , , , , , ,    UNNAMED
AL, 03, 1899080606,   , BEST,   0, 148N,  524W,  75,     , HU, , , , , , , , , , , , , ,    UNNAMED
AL, 03, 1899080612,   , BEST,   0, 151N,  542W,  80,     , HU, , , , , , , , , , , , , ,    UNNAMED
AL, 03, 1899080618,   , BEST,   0, 154N,  558W,  90,     , HU, , , , , , , , , , , , , ,    UNNAMED
AL, 03, 1899080700,   , BEST,   0, 157N,  574W, 100,     , HU, , , , , , , , , , , , , ,    UNNAMED
AL, 03, 1899080706,   , BEST,   0, 159N,  590W, 110,     , HU, , , , , , , , , , , , , ,    UNNAMED
AL, 03, 1899080712,   , BEST,   0, 162N,  605W, 120,     , HU, , , , , , , , , , , , , ,    UNNAMED
AL, 03, 1899080718,   , BEST,   0, 165N,  620W, 130,  930, HU, , , , , , , , , , , , , ,    UNNAMED
AL, 03, 1899080800,   , BEST,   0, 169N,  634W, 130,     , HU, , , , , , , , , , , , , ,    UNNAMED
AL, 03, 1899080806,   , BEST,   0, 174N,  648W, 125,     , HU, , , , , , , , , , , , , ,    UNNAMED
AL, 03, 1899080812,   , BEST,   0, 180N,  662W, 120,  940, HU, , , , , , , , , , , , , ,    UNNAMED
AL, 03, 1899080818,   , BEST,   0, 186N,  673W, 105,     , HU, , , , , , , , , , , , , ,    UNNAMED
AL, 03, 1899080900,   , BEST,   0, 189N,  681W, 105,     , HU, , , , , , , , , , , , , ,    UNNAMED
AL, 03, 1899080906,   , BEST,   0, 193N,  689W, 105,     , HU, , , , , , , , , , , , , ,    UNNAMED
AL, 03, 1899080912,   , BEST,   0, 197N,  698W, 105,     , HU, , , , , , , , , , , , , ,    UNNAMED
AL, 03, 1899080918,   , BEST,   0, 201N,  706W, 105,     , HU, , , , , , , , , , , , , ,    UNNAMED
AL, 03, 1899081000,   , BEST,   0, 204N,  714W, 105,     , HU, , , , , , , , , , , , , ,    UNNAMED
AL, 03, 1899081006,   , BEST,   0, 207N,  722W, 105,     , HU, , , , , , , , , , , , , ,    UNNAMED
AL, 03, 1899081012,   , BEST,   0, 210N,  730W, 105,     , HU, , , , , , , , , , , , , ,    UNNAMED
AL, 03, 1899081018,   , BEST,   0, 214N,  737W, 105,     , HU, , , , , , , , , , , , , ,    UNNAMED
AL, 03, 1899081100,   , BEST,   0, 220N,  745W, 105,     , HU, , , , , , , , , , , , , ,    UNNAMED
AL, 03, 1899081106,   , BEST,   0, 225N,  753W, 105,     , HU, , , , , , , , , , , , , ,    UNNAMED
AL, 03, 1899081112,   , BEST,   0, 230N,  760W, 105,     , HU, , , , , , , , , , , , , ,    UNNAMED
AL, 03, 1899081118,   , BEST,   0, 234N,  765W, 105,     , HU, , , , , , , , , , , , , ,    UNNAMED
AL, 03, 1899081200,   , BEST,   0, 238N,  770W, 105,     , HU, , , , , , , , , , , , , ,    UNNAMED
AL, 03, 1899081206,   , BEST,   0, 242N,  774W, 105,     , HU, , , , , , , , , , , , , ,    UNNAMED
AL, 03, 1899081212,   , BEST,   0, 245N,  777W, 105,     , HU, , , , , , , , , , , , , ,    UNNAMED
AL, 03, 1899081218,   , BEST,   0, 251N,  780W, 105,     , HU, , , , , , , , , , , , , ,    UNNAMED
AL, 03, 1899081300,   , BEST,   0, 256N,  782W, 105,     , HU, , , , , , , , , , , , , ,    UNNAMED
AL, 03, 1899081306,   , BEST,   0, 262N,  784W, 105,     , HU, , , , , , , , , , , , , ,    UNNAMED
AL, 03, 1899081312,   , BEST,   0, 270N,  786W, 105,     , HU, , , , , , , , , , , , , ,    UNNAMED
AL, 03, 1899081318,   , BEST,   0, 276N,  788W, 105,     , HU, , , , , , , , , , , , , ,    UNNAMED
AL, 03, 1899081400,   , BEST,   0, 283N,  790W, 105,     , HU, , , , , , , , , , , , , ,    UNNAMED
AL, 03, 1899081406,   , BEST,   0, 290N,  791W, 105,     , HU, , , , , , , , , , , , , ,    UNNAMED
AL, 03, 1899081412,   , BEST,   0, 297N,  790W, 105,     , HU, , , , , , , , , , , , , ,    UNNAMED
AL, 03, 1899081418,   , BEST,   0, 303N,  789W, 105,     , HU, , , , , , , , , , , , , ,    UNNAMED
AL, 03, 1899081500,   , BEST,   0, 309N,  787W, 105,     , HU, , , , , , , , , , , , , ,    UNNAMED
AL, 03, 1899081506,   , BEST,   0, 313N,  784W, 105,     , HU, , , , , , , , , , , , , ,    UNNAMED
AL, 03, 1899081512,   , BEST,   0, 317N,  780W, 105,     , HU, , , , , , , , , , , , , ,    UNNAMED
AL, 03, 1899081518,   , BEST,   0, 322N,  775W, 105,     , HU, , , , , , , , , , , , , ,    UNNAMED
AL, 03, 1899081600,   , BEST,   0, 326N,  769W, 105,     , HU, , , , , , , , , , , , , ,    UNNAMED
AL, 03, 1899081606,   , BEST,   0, 328N,  762W, 105,     , HU, , , , , , , , , , , , , ,    UNNAMED
AL, 03, 1899081612,   , BEST,   0, 330N,  755W, 105,     , HU, , , , , , , , , , , , , ,    UNNAMED
AL, 03, 1899081618,   , BEST,   0, 333N,  750W, 105,     , HU, , , , , , , , , , , , , ,    UNNAMED
AL, 03, 1899081700,   , BEST,   0, 337N,  746W, 105,     , HU, , , , , , , , , , , , , ,    UNNAMED
AL, 03, 1899081706,   , BEST,   0, 341N,  744W, 105,     , HU, , , , , , , , , , , , , ,    UNNAMED
AL, 03, 1899081712,   , BEST,   0, 345N,  745W, 105,     , HU, , , , , , , , , , , , , ,    UNNAMED
AL, 03, 1899081718,   , BEST,   0, 348N,  750W, 105,     , HU, , , , , , , , , , , , , ,    UNNAMED
AL, 03, 1899081800,   , BEST,   0, 351N,  757W, 105,     , HU, , , , , , , , , , , , , ,    UNNAMED
AL, 03, 1899081801,   , BEST,   0, 352N,  758W, 105,     , HU, , , , , , , , , , , , , ,    UNNAMED
AL, 03, 1899081806,   , BEST,   0, 357N,  760W,  90,     , HU, , , , , , , , , , , , , ,    UNNAMED
AL, 03, 1899081812,   , BEST,   0, 363N,  757W,  80,     , HU, , , , , , , , , , , , , ,    UNNAMED
AL, 03, 1899081818,   , BEST,   0, 364N,  755W,  75,     , HU, , , , , , , , , , , , , ,    UNNAMED
AL, 03, 1899081900,   , BEST,   0, 364N,  753W,  75,     , HU, , , , , , , , , , , , , ,    UNNAMED
AL, 03, 1899081906,   , BEST,   0, 364N,  750W,  70,     , HU, , , , , , , , , , , , , ,    UNNAMED
AL, 03, 1899081912,   , BEST,   0, 365N,  747W,  70,     , HU, , , , , , , , , , , , , ,    UNNAMED
AL, 03, 1899081918,   , BEST,   0, 370N,  740W,  70,     , HU, , , , , , , , , , , , , ,    UNNAMED
AL, 03, 1899082000,   , BEST,   0, 377N,  729W,  70,     , HU, , , , , , , , , , , , , ,    UNNAMED
AL, 03, 1899082006,   , BEST,   0, 383N,  719W,  70,     , HU, , , , , , , , , , , , , ,    UNNAMED
AL, 03, 1899082012,   , BEST,   0, 388N,  707W,  70,     , HU, , , , , , , , , , , , , ,    UNNAMED
AL, 03, 1899082018,   , BEST,   0, 393N,  690W,  70,     , HU, , , , , , , , , , , , , ,    UNNAMED
AL, 03, 1899082100,   , BEST,   0, 394N,  673W,  70,     , HU, , , , , , , , , , , , , ,    UNNAMED
AL, 03, 1899082106,   , BEST,   0, 395N,  654W,  70,     , HU, , , , , , , , , , , , , ,    UNNAMED
AL, 03, 1899082112,   , BEST,   0, 397N,  635W,  70,     , HU, , , , , , , , , , , , , ,    UNNAMED
AL, 03, 1899082118,   , BEST,   0, 395N,  613W,  65,     , HU, , , , , , , , , , , , , ,    UNNAMED
AL, 03, 1899082200,   , BEST,   0, 393N,  589W,  60,     , EX, , , , , , , , , , , , , ,    UNNAMED
AL, 03, 1899082206,   , BEST,   0, 391N,  565W,  55,     , EX, , , , , , , , , , , , , ,    UNNAMED
AL, 03, 1899082212,   , BEST,   0, 387N,  543W,  50,     , EX, , , , , , , , , , , , , ,    UNNAMED
AL, 03, 1899082218,   , BEST,   0, 383N,  529W,  50,     , EX, , , , , , , , , , , , , ,    UNNAMED
AL, 03, 1899082300,   , BEST,   0, 379N,  520W,  50,     , EX, , , , , , , , , , , , , ,    UNNAMED
AL, 03, 1899082306,   , BEST,   0, 373N,  509W,  45,     , EX, , , , , , , , , , , , , ,    UNNAMED
AL, 03, 1899082312,   , BEST,   0, 367N,  500W,  45,     , EX, , , , , , , , , , , , , ,    UNNAMED
AL, 03, 1899082318,   , BEST,   0, 360N,  490W,  45,     , EX, , , , , , , , , , , , , ,    UNNAMED
AL, 03, 1899082400,   , BEST,   0, 354N,  482W,  45,     , EX, , , , , , , , , , , , , ,    UNNAMED
AL, 03, 1899082406,   , BEST,   0, 347N,  472W,  40,     , EX, , , , , , , , , , , , , ,    UNNAMED
AL, 03, 1899082412,   , BEST,   0, 343N,  460W,  40,     , EX, , , , , , , , , , , , , ,    UNNAMED
AL, 03, 1899082418,   , BEST,   0, 342N,  450W,  40,     , EX, , , , , , , , , , , , , ,    UNNAMED
AL, 03, 1899082500,   , BEST,   0, 343N,  441W,  40,     , EX, , , , , , , , , , , , , ,    UNNAMED
AL, 03, 1899082506,   , BEST,   0, 346N,  433W,  40,     , EX, , , , , , , , , , , , , ,    UNNAMED
AL, 03, 1899082512,   , BEST,   0, 353N,  430W,  40,     , EX, , , , , , , , , , , , , ,    UNNAMED
AL, 03, 1899082518,   , BEST,   0, 356N,  430W,  40,     , EX, , , , , , , , , , , , , ,    UNNAMED
AL, 03, 1899082600,   , BEST,   0, 360N,  432W,  40,     , TS, , , , , , , , , , , , , ,    UNNAMED
AL, 03, 1899082606,   , BEST,   0, 363N,  433W,  40,     , TS, , , , , , , , , , , , , ,    UNNAMED
AL, 03, 1899082612,   , BEST,   0, 365N,  435W,  40,     , TS, , , , , , , , , , , , , ,    UNNAMED
AL, 03, 1899082618,   , BEST,   0, 368N,  437W,  40,     , TS, , , , , , , , , , , , , ,    UNNAMED
AL, 03, 1899082700,   , BEST,   0, 372N,  440W,  40,     , TS, , , , , , , , , , , , , ,    UNNAMED
AL, 03, 1899082706,   , BEST,   0, 375N,  442W,  40,     , TS, , , , , , , , , , , , , ,    UNNAMED
AL, 03, 1899082712,   , BEST,   0, 377N,  445W,  40,     , TS, , , , , , , , , , , , , ,    UNNAMED
AL, 03, 1899082718,   , BEST,   0, 382N,  447W,  40,     , TS, , , , , , , , , , , , , ,    UNNAMED
AL, 03, 1899082800,   , BEST,   0, 387N,  449W,  40,     , TS, , , , , , , , , , , , , ,    UNNAMED
AL, 03, 1899082806,   , BEST,   0, 394N,  450W,  40,     , TS, , , , , , , , , , , , , ,    UNNAMED
AL, 03, 1899082812,   , BEST,   0, 400N,  450W,  40,     , TS, , , , , , , , , , , , , ,    UNNAMED
AL, 03, 1899082818,   , BEST,   0, 403N,  447W,  40,     , TS, , , , , , , , , , , , , ,    UNNAMED
AL, 03, 1899082900,   , BEST,   0, 406N,  441W,  40,     , TS, , , , , , , , , , , , , ,    UNNAMED
AL, 03, 1899082906,   , BEST,   0, 406N,  435W,  40,     , TS, , , , , , , , , , , , , ,    UNNAMED
AL, 03, 1899082912,   , BEST,   0, 405N,  430W,  40,     , TS, , , , , , , , , , , , , ,    UNNAMED
AL, 03, 1899082918,   , BEST,   0, 405N,  427W,  40,     , TS, , , , , , , , , , , , , ,    UNNAMED
AL, 03, 1899083000,   , BEST,   0, 405N,  423W,  40,     , TS, , , , , , , , , , , , , ,    UNNAMED
AL, 03, 1899083006,   , BEST,   0, 405N,  419W,  40,     , TS, , , , , , , , , , , , , ,    UNNAMED
AL, 03, 1899083012,   , BEST,   0, 403N,  415W,  40,     , TS, , , , , , , , , , , , , ,    UNNAMED
AL, 03, 1899083018,   , BEST,   0, 402N,  412W,  40,     , TS, , , , , , , , , , , , , ,    UNNAMED
AL, 03, 1899083100,   , BEST,   0, 401N,  409W,  40,     , TS, , , , , , , , , , , , , ,    UNNAMED
AL, 03, 1899083106,   , BEST,   0, 400N,  405W,  40,     , TS, , , , , , , , , , , , , ,    UNNAMED
AL, 03, 1899083112,   , BEST,   0, 400N,  400W,  40,     , TS, , , , , , , , , , , , , ,    UNNAMED
AL, 03, 1899083118,   , BEST,   0, 399N,  393W,  40,     , TS, , , , , , , , , , , , , ,    UNNAMED
AL, 03, 1899090100,   , BEST,   0, 399N,  387W,  40,     , TS, , , , , , , , , , , , , ,    UNNAMED
AL, 03, 1899090106,   , BEST,   0, 399N,  379W,  40,     , TS, , , , , , , , , , , , , ,    UNNAMED
AL, 03, 1899090112,   , BEST,   0, 400N,  370W,  40,     , TS, , , , , , , , , , , , , ,    UNNAMED
AL, 03, 1899090118,   , BEST,   0, 399N,  357W,  40,     , TS, , , , , , , , , , , , , ,    UNNAMED
AL, 03, 1899090200,   , BEST,   0, 397N,  347W,  45,     , TS, , , , , , , , , , , , , ,    UNNAMED
AL, 03, 1899090206,   , BEST,   0, 395N,  333W,  50,     , TS, , , , , , , , , , , , , ,    UNNAMED
AL, 03, 1899090212,   , BEST,   0, 390N,  320W,  55,     , TS, , , , , , , , , , , , , ,    UNNAMED
AL, 03, 1899090218,   , BEST,   0, 383N,  311W,  60,     , TS, , , , , , , , , , , , , ,    UNNAMED
AL, 03, 1899090300,   , BEST,   0, 379N,  305W,  65,     , HU, , , , , , , , , , , , , ,    UNNAMED
AL, 03, 1899090306,   , BEST,   0, 375N,  296W,  70,     , HU, , , , , , , , , , , , , ,    UNNAMED
AL, 03, 1899090312,   , BEST,   0, 373N,  287W,  70,     , HU, , , , , , , , , , , , , ,    UNNAMED
AL, 03, 1899090318,   , BEST,   0, 378N,  275W,  65,     , HU, , , , , , , , , , , , , ,    UNNAMED
AL, 03, 1899090400,   , BEST,   0, 390N,  255W,  60,     , EX, , , , , , , , , , , , , ,    UNNAMED
AL, 03, 1899090406,   , BEST,   0, 415N,  225W,  55,     , EX, , , , , , , , , , , , , ,    UNNAMED
AL, 03, 1899090412,   , BEST,   0, 450N,  185W,  50,     , EX, , , , , , , , , , , , , ,    UNNAMED
AL, 03, 1899090418,   , BEST,   0, 490N,  155W,  45,     , EX, , , , , , , , , , , , , ,    UNNAMED
